weather.gov     
National Weather Service

Regional Weather Roundup
NWS Homepage
This page is being discontinued on March 12, 2014.
The same data is available at this site. Please update your bookmarks.
Thank you, and we apologize for the inconvenience.
Please send an email to SR-SRH.Webmaster@noaa.gov with any concerns.


Current Version
Previous Version:    01  02  03  04  05  06  07  08  09  10  11  12  13  14  15  16  17  18  19  20  21  22  23  24  25  26  27  28  29  
[Printable]
172
ASUS42 KTBW 211010
RWRFL
FLORIDA REGIONAL WEATHER ROUNDUP
NATIONAL WEATHER SERVICE TAMPA BAY RUSKIN FL
600 AM EDT SUN SEP 21 2014

NOTE: "FAIR" INDICATES FEW OR NO CLOUDS BELOW 12,000 FEET WITH NO
SIGNIFICANT WEATHER AND/OR OBSTRUCTIONS TO VISIBILITY.


FLZ001>010-012>015-112-114-115-211100-
PANHANDLE FLORIDA

CITY           SKY/WX    TMP DP  RH WIND       PRES   REMARKS
PENSACOLA      PTCLDY    71  66  84 NE5       29.99R
PENSACOLA NAS  CLEAR     71  67  87 NE5       29.98R
MILTON NAS     MOCLDY    69  65  86 NE5       30.00R
CRESTVIEW      CLEAR     66  65  96 CALM      30.02R
DUKE FIELD     FAIR      65  65 100 N2        30.00R
VALPARAISO     PTCLDY    69  66  90 N5        29.99R
MARY ESTHER    CLEAR     68  63  84 NE5       29.98R
TRI COUNTY     FAIR      65  64  97 MISG      30.01R FOG
PANAMA CITY    FAIR      68  65  90 CALM      29.98R
TYNDALL AFB    CLEAR     70  70  99 NE6       29.99R
APALACHICOLA   CLEAR     72  68  87 NE8       29.97R

STATION/POSITION SKY/WX   TEMP    WIND        PRES    WAVE   SWELL
                          AIR SEA DIR/SP/G            HT/PER HT/PER
                          (F)     (DEG/KT/KT) (MB)    (FT/S) (FT/S)
30.1N   87.6W              79 85   40/ 17/ 19 1014.6R   3/ 5
29.2N   88.2W              81 84   80/ 10/ 14 1014.3R   3/ 6   3/ 6
28.8N   86.0W              81 84   90/ 12/ 16 1013.1    3/ 4
PANAMA CITY BEAC           73 85   20/  2/  3 1015.3R
CAPE SAN BLAS    NOT AVBL
TOWER C                    78      80/ 13/ 15 1014.4R
28.5N   84.5W              80 84   80/ 14/ 17 1013.5R   3/ 5

$$
FLZ011-016>038-118-127-128-134-139-239-211100-
NORTH FLORIDA

CITY           SKY/WX    TMP DP  RH WIND       PRES   REMARKS
MARIANNA       CLEAR     66  66 100 CALM      30.00R
TALLAHASSEE    PTCLDY    62  62 100 CALM      29.99R
PERRY          CLEAR     64  64 100 CALM      29.98R
CROSS CITY       N/A     66  65  96 CALM      29.96R
LAKE CITY      FAIR      64  64 100 N5        29.98R
GAINESVILLE    CLEAR     66  65  96 CALM      29.97R
MAYPORT NAS    CLEAR     69  66  90 VRB3      29.96R
JACKSONVILLE   CLEAR     65  64  97 CALM      29.96R
JAX NAS        CLEAR     71  64  78 NW5       29.97R
JAX CRAIG      CLEAR     68  64  87 NW3       29.96R
JAX CECIL      CLEAR     63  63 100 CALM      29.97R
ST AUGUSTINE   CLEAR     68  66  93 NW7       29.96R

STATION/POSITION SKY/WX   TEMP    WIND        PRES    WAVE   SWELL
                          AIR SEA DIR/SP/G            HT/PER HT/PER
                          (F)     (DEG/KT/KT) (MB)    (FT/S) (FT/S)
SHELL POINT                72      50/  2/  6   N/A
KEATON BEACH               67      20/  2/  3 1015.1R
CEDAR KEY                  71      40/  7/  9 1014.4F
FERNANDINA                 69 81  330/  6/  7 1013.9R
30.7N   81.3W                 83                N/A     4/ 6
MAYPORT                    70 82  310/  6/  7   N/A
31.4N   80.9W              76 83  360/ 16/ 19 1013.3R   5/ 7
ST AUGUSTINE               69     300/  4/  5 1014.9R

$$
FLZ040-043>046-052-053-057-058-063-144-211100-
INTERIOR CENTRAL FLORIDA

CITY           SKY/WX    TMP DP  RH WIND       PRES   REMARKS
OCALA          CLEAR     66  64  94 CALM      29.96S
THE VILLAGES     N/A     70  70 100 CALM      29.87R FOG
LEESBURG       PTCLDY    70  68  93 N5        29.97R
SANFORD        PTCLDY    70  69  97 NW5       29.95R FOG
ORLANDO EXEC   CLOUDY    72  70  93 N5        29.96R
ORLANDO INTL   PTCLDY    71  70  96 CALM      29.96R
WINTER HAVEN   CLEAR     71  70  96 CALM      29.97R
LAKELAND       PTCLDY   N/A N/A N/A CALM      29.96R
BARTOW         FAIR      70 N/A N/A CALM      29.97R
OKEECHOBEE       N/A     70  70 100 MISG        N/A

$$
FLZ041-047-054-059-064-141-147-211100-
EAST CENTRAL FLORIDA

CITY           SKY/WX    TMP DP  RH WIND       PRES   REMARKS
DAYTONA BEACH  PTCLDY    70  69  97 NW5       29.95R
DELAND         MOSUNNY   68  68 100 CALM      29.97R
JFK SPACE CTR  CLEAR     71  70  95 NW5       29.94R
CAPE CANAVERAL CLEAR     73  71  95 W6        29.94R
PATRICK AFB    PTCLDY    73  72  98 W7        29.95R
MELBOURNE      CLEAR     72  69  90 W5        29.94S
VERO BEACH     HAZE      69  64  84 SW5       29.95S VSB 1/2
FT PIERCE      MOCLDY    72  70  93 CALM      29.95S
STUART         PTCLDY    72  72 100 CALM      29.96R

STATION/POSITION SKY/WX   TEMP    WIND        PRES    WAVE   SWELL
                          AIR SEA DIR/SP/G            HT/PER HT/PER
                          (F)     (DEG/KT/KT) (MB)    (FT/S) (FT/S)
28.5N   80.2W              78 84  290/  8/ 12 1013.4R
28.9N   78.5W              80 84  270/ 10/ 14 1012.7R   4/ 8   3/ 8
TRIDENT PIER               74 84  280/  6/  7 1013.4R
28.4N   80.5W                 83                N/A     2/11
27.6N   80.2W                 83                N/A     2/10

$$
FLZ050-056-061-142-242-148-248-149-249-151-251-155-255-
160-260-211100-
WEST CENTRAL FLORIDA

CITY           SKY/WX    TMP DP  RH WIND       PRES   REMARKS
CRYSTAL RIVER  FAIR      68  66  94 CALM      29.96R
INVERNESS      FAIR      68  61  77 CALM      29.96S
BROOKSVILLE    CLEAR     69  68  96 E3        29.97R
ZEPHYRHILLS      N/A     63  63 100 CALM      29.97R
CLEARWATER     PTCLDY    74  71  91 E7        29.95R
TAMPA INTL     PTCLDY    72  69  90 E3        29.96R
TAMPA EXEC     MOCLDY    72  70  94 CALM      29.96S
PLANT CITY     PTCLDY    72 N/A N/A CALM      29.98R
MACDILL AFB    PTCLDY    72  72 100 E8        29.95R
ST PETERSBURG  MOCLDY    75  72  90 E10       29.94R
SARASOTA       MOCLDY    74  73  97 E7        29.93S
VENICE           N/A    N/A N/A N/A MISG        N/A

STATION/POSITION SKY/WX   TEMP    WIND        PRES    WAVE   SWELL
                          AIR SEA DIR/SP/G            HT/PER HT/PER
                          (F)     (DEG/KT/KT) (MB)    (FT/S) (FT/S)
CEDAR KEY                  71      40/  7/  9 1014.4F
28.5N   84.5W              80 84   80/ 14/ 17 1013.5R   3/ 5
27.3N   84.3W                 85                N/A     2/ 5
CLEARWATER BEACH NOT AVBL
MIDDLE TAMPA BAY           75      80/ 10/ 12 1014.3R
VENICE                     76 84  120/  8/ 10 1013.3S

$$
FLZ066-069-070-075>078-162-262-165-265-211100-
SOUTHWEST FLORIDA AND KEYS

CITY           SKY/WX    TMP DP  RH WIND       PRES   REMARKS
PUNTA GORDA    CLOUDY    75  73  93 E3        29.96R
FT MYERS       CLOUDY    75  74  96 CALM      29.94R
SOUTHWEST INTL CLOUDY    74  68  81 CALM      29.94S
NAPLES         CLOUDY    76  74  93 CALM      29.93S
MARCO ISLAND   SUNNY     75  73  94 N3        29.94R
MARATHON       MOCLDY    80  76  87 SW5       29.94R
KEY WEST NAS   CLOUDY    80  74  81 SE5       29.93R
KEY WEST INTL  CLOUDY    82  75  79 SE6       29.94R

STATION/POSITION SKY/WX   TEMP    WIND        PRES    WAVE   SWELL
                          AIR SEA DIR/SP/G            HT/PER HT/PER
                          (F)     (DEG/KT/KT) (MB)    (FT/S) (FT/S)
VENICE                     76 84  120/  8/ 10 1013.3S
NAPLES                     77 87  100/  3/  5 1014.1F
DRY TORTUGAS               81     140/  4/  5 1014.0R
NW FL BAY                  82     120/  4/  5 1013.7F
SAND KEY                   81     160/  7/  9 1013.5R
SOMBRERO KEY               81     210/  5/  6 1014.5R
LONG KEY                   80 84  200/  8/  9 1014.2F
MOLASSES REEF              81 85  280/  4/  5 1013.9R

$$
FLZ067-068-071>074-168-172>174-211100-
SOUTHEAST FLORIDA

CITY           SKY/WX    TMP DP  RH WIND       PRES   REMARKS
W PALM BEACH   MOCLDY    76  74  93 SW3       29.93S
FT LAUDER-EXEC MOCLDY    75  75 100 CALM      29.94R
FT LAUDERDALE  MOCLDY    75  73  93 CALM      29.94R
POMPANO BEACH  MOCLDY    76  73  91 W5        29.94R
PEMBROKE PINES MOCLDY    74  73  97 CALM      29.95S
OPA LOCKA      MOCLDY    75  72  90 NW3       29.95R
MIAMI          MOCLDY    74  72  93 CALM      29.95R
WEST KENDALL   MOCLDY    74  72  93 CALM      29.95R
HOMESTEAD      MOCLDY    73  71  95 NW2       29.95R

STATION/POSITION SKY/WX   TEMP    WIND        PRES    WAVE   SWELL
                          AIR SEA DIR/SP/G            HT/PER HT/PER
                          (F)     (DEG/KT/KT) (MB)    (FT/S) (FT/S)
PORT EVERGLADES            77     290/  3/  5 1013.8
VIRGINIA KEY               78 84  300/  3/  4   N/A
LAKE WORTH                 77 85  250/  5/  8 1013.6R
FOWEY ROCKS                80 84  280/  4/  5 1014.5R
SETTLEMENT POINT           81     280/ 10/ 11 1014.8R

$$





U.S. Dept. of Commerce
NOAA National Weather Service
1325 East West Highway
Silver Spring, MD 20910
E-mail: w-nws.webmaster@noaa.gov
Page last modified: May 16, 2007
NATIONAL WEATHER SERVICE: for Safety, for Work, for Fun - FOR LIFE